TIME,DELAY(SENSOR),PRES,T(CTD),SAL,OXYGEN,RAWTEMP,T(OPTODE),TCPHASE,FLUOR,BETA(BETA700),BETA(BETA412),BETA(BETA440),CDOM,C(CSC),ED(ED412.40),ED(ED444.00),ED(ED489.70),ED(ED554.30),LU(LU411.80),LU(LU443.40),LU(LU489.60),LU(LU554.10),COMP,TILTX,TILTX(TILTY),CHECK
1383341334,5809,492.5100097656250000,6.9689998626708980,34.1259994506835940,86.1577987670898400,588.3280029296875000,6.9606719017028810,48.0237998962402340,51,103,83,79,76,15213,2147742144,2147425801,2148009581,2147871707,2147626203,2147069312,2148245458,2147198555,1123,4,13,39305
1383341463,5808,479.3500061035156000,7.2564001083374020,34.1204986572265600,92.2353973388671900,579.8291015625000000,7.2339549064636230,47.2160415649414060,51,102,84,79,77,15217,2147743835,2147421750,2148008356,2147875529,2147622262,2147075072,2148248301,2147203300,847,3,13,31021
1383341598,5806,468.3299865722656000,7.4330000877380370,34.1127014160156250,100.8254013061523400,574.2083740234375000,7.4143300056457520,46.2020492553710940,51,105,85,80,75,15216,2147740516,2147423524,2148010596,2147874998,2147622656,2147075136,2148243300,2147202130,3087,3,13,37545
1383341739,5809,458.2500000000000000,7.5416002273559570,34.1074981689453100,109.8488006591796900,570.6649780273438000,7.5278968811035160,45.2174186706543000,51,104,89,79,75,15215,2147742902,2147424530,2148008411,2147871652,2147624347,2147081810,2148241956,2147204205,1240,3,13,36388
1383341890,5807,447.9100036621094000,7.7406001091003420,34.1016998291015600,117.5382995605468800,564.6533203125000000,7.7203269004821780,44.3645706176757800,50,104,86,79,75,15216,2147740736,2147422198,2148008987,2147874020,2147621129,2147081481,2148237924,2147203300,3453,4,13,11475
1383342079,5807,434.8399963378906000,8.1325998306274410,34.0948982238769500,132.8477935791015600,551.8898925781250000,8.1278419494628900,42.7307395935058600,50,104,83,79,74,15216,2147739766,2147424557,2148005092,2147875245,2147617188,2147079981,2148239716,2147202870,3570,4,13,8723
1383342213,5809,423.7300109863281000,8.3262996673583980,34.1006011962890600,138.9741058349609400,545.9807739257812000,8.3160495758056640,42.0919609069824200,50,104,85,80,74,15214,2147736841,2147423616,2148008091,2147874523,2147619538,2147085376,2148236132,2147203190,300,4,13,57295
1383342348,5807,412.2300109863281000,8.4439001083374020,34.0984001159668000,147.5588989257812500,542.0944824218750000,8.4396743774414060,41.3027610778808600,50,104,84,79,73,15215,2147738157,2147424612,2148006921,2147874413,2147616813,2147084105,2148232621,2147201984,2882,3,13,162
1383342470,5810,400.0299987792969000,8.7857999801635740,34.1063003540039060,149.3135986328125000,531.4608154296875000,8.7773189544677730,40.9760017395019500,50,102,88,80,73,15213,2147736548,2147425014,2148004324,2147872137,2147616566,2147085485,2148236891,2147203995,2731,3,12,61406
1383342573,5807,389.1700134277344000,9.0283002853393550,34.1082992553710940,156.0650939941406200,523.8035888671875000,9.0199108123779300,40.3021316528320300,50,104,84,79,72,15215,2147737600,2147426130,2148006089,2147873554,2147616283,2147083309,2148236324,2147205558,1428,4,13,3530
1383342678,5809,378.3200073242187500,9.4117002487182620,34.1118011474609400,168.2975006103515600,511.4114074707031000,9.4115734100341800,39.1584396362304700,49,106,87,80,71,15213,2147733184,2147424886,2148009536,2147874907,2147614290,2147094089,2148230592,2147202121,1156,4,13,11926
1383342793,5809,366.7200012207031000,9.7518997192382810,34.1213989257812500,175.1067962646484400,501.2101135253906000,9.7331562042236330,38.4925117492675800,50,105,88,79,71,15213,2147734235,2147424356,2148007067,2147872868,2147612434,2147099328,2148227419,2147205714,827,3,13,17035
1383342908,5808,355.7500000000000000,10.1813001632690430,34.1363983154296900,194.3059997558593800,486.6978149414062500,10.1893901824951170,36.9566001892089840,48,104,90,80,70,15216,2147732388,2147425865,2148005028,2147872969,2147608475,2147095442,2148229769,2147200795,487,4,14,38193
1383343025,5809,344.7099914550781000,10.6872997283935550,34.1576995849609400,208.5265960693359400,470.6633911132812500,10.6918601989746100,35.8186988830566400,48,106,86,79,69,15215,2147730934,2147421641,2148009892,2147875556,2147607094,2147100781,2148226221,2147202267,2696,3,14,28100
1383343140,5808,334.1700134277344000,11.1487998962402340,34.1832008361816400,216.4300994873047000,456.2496032714844000,11.1421699523925780,35.1278114318847660,49,104,84,80,67,15215,2147730432,2147424384,2148013129,2147872512,2147605156,2147101138,2148222445,2147208000,2321,3,13,17092
1383343269,5807,322.7399902343750000,11.5074996948242190,34.2005996704101560,218.7653045654297000,443.0367126464844000,11.5539102554321290,34.7845306396484400,49,102,85,79,69,15213,2147725632,2147427044,2148012973,2147871661,2147604644,2147106166,2148223844,2147206957,2706,4,13,13484
1383343408,5810,311.3500061035156000,12.3730001449584960,34.2387008666992200,215.1714019775390600,417.2027893066406000,12.3562097549438480,34.5755081176757800,49,105,86,78,67,15212,2147726363,2147425700,2148016731,2147874194,2147599670,2147111661,2148215204,2147204699,2593,4,13,63571
1383343547,5807,300.6300048828125000,13.0527000427246100,34.3017997741699200,212.7046966552734400,395.3474121093750000,13.0324296951293950,34.3738517761230500,48,104,85,80,66,15209,2147724068,2147428992,2148018715,2147875401,2147592987,2147117961,2148214180,2147205394,2348,3,13,62814
1383343688,5807,289.3999938964844000,13.3577995300292970,34.3203010559082000,217.1331939697265600,384.8293151855469000,13.3571195602417000,33.9638786315918000,49,103,86,78,66,15210,2147719881,2147430592,2148027611,2147871552,2147588452,2147122843,2148221220,2147208694,2755,3,13,13557
1383343827,5807,278.4599914550781000,13.8128004074096680,34.3629989624023440,216.3365020751953000,369.1329040527344000,13.8408498764038090,33.7688102722168000,48,105,86,79,66,15211,2147718976,2147433636,2148036854,2147870500,2147590692,2147125376,2148220397,2147208027,2377,3,14,947
1383343980,5809,265.1900024414062500,14.3407001495361330,34.4189987182617200,214.8713073730468800,352.7760009765625000,14.3439903259277340,33.6041107177734400,49,104,84,80,65,15211,2147716589,2147439716,2148059995,2147872274,2147588480,2147135460,2148228580,2147206637,1433,3,14,49205
1383344092,5808,253.3699951171875000,14.9240999221801760,34.4707984924316400,215.9187011718750000,333.0379943847656000,14.9500198364257810,33.2523994445800800,49,107,86,79,66,15203,2147716662,2147450121,2148080356,2147872128,2147588251,2147144530,2148240493,2147212352,483,3,13,64592
1383344195,5807,242.8099975585937500,15.4474000930786130,34.5185012817382800,217.2415008544922000,316.7955932617187500,15.4479398727417000,32.9419593811035160,49,107,87,80,65,15206,2147716736,2147463917,2148116123,2147871579,2147586468,2147156242,2148248932,2147214116,3076,3,14,28131
1383344312,5809,231.5399932861328000,15.8927001953125000,34.5674018859863300,214.0395050048828000,301.2392883300781000,15.9242601394653320,32.8913993835449200,49,108,88,80,65,15203,2147715008,2147491428,2148178468,2147872347,2147582189,2147178651,2148280932,2147217444,2634,3,14,17862
1383344439,5808,221.0399932861328000,16.7115001678466800,34.6553993225097660,217.9234008789062500,275.7782897949219000,16.7029495239257800,32.3149108886718750,50,105,86,80,64,15200,2147713819,2147475145,2148119652,2147875209,2147581074,2147174253,2148245778,2147214217,705,2,14,48428
1383344592,5809,209.5000000000000000,17.4006004333496100,34.7364006042480500,219.9403991699218800,253.4149017333984400,17.3862400054931640,31.8926105499267580,52,106,88,79,64,15191,2147714322,2147486034,2148138916,2147872877,2147576941,2147181110,2148251721,2147215652,3331,3,15,19093
1383344743,5808,198.4799957275390600,17.9545993804931640,34.7980995178222660,217.9266967773437500,235.2225036621093800,17.9418506622314450,31.7460308074951170,53,110,87,79,63,15192,2147726080,2147569398,2148339584,2147872109,2147577746,2147246308,2148354514,2147220205,3386,3,15,31621
1383344798,5807,194.4199981689453000,18.0613002777099600,34.8119010925293000,217.0209045410156200,231.3256988525390600,18.0608501434326170,31.7403297424316400,54,105,84,80,63,15189,2147746706,2147660187,2148556022,2147876278,2147583744,2147292562,2148453257,2147232329,3327,2,15,51161
1383344879,5809,188.6699981689453000,18.1536006927490230,34.8217010498046900,216.0346069335937500,228.4490051269531200,18.1487007141113280,31.7530803680419920,53,106,84,80,63,15191,2147732781,2147582820,2148344301,2147873380,2147574802,2147249408,2148351561,2147222838,2937,3,14,2365
1383344934,5809,185.1000061035156200,18.1989002227783200,34.8283004760742200,215.8527984619140600,226.9674987792968800,18.1939392089843750,31.7423591613769530,55,107,86,78,63,15187,2147728886,2147560484,2148286738,2147874294,2147576246,2147250157,2148317458,2147224301,2842,2,14,40783
1383345001,5816,180.6999969482422000,18.4395999908447270,34.8577995300293000,215.5162963867187500,219.3628997802734400,18.4261798858642580,31.6557807922363280,58,107,87,79,63,15186,2147718811,2147511122,2148144182,2147875163,2147569910,2147204516,2148250221,2147215305,1767,2,15,7450
1383345056,5806,177.3399963378906200,18.5006999969482420,34.8712997436523440,215.6761932373047000,215.7673034667968800,18.5359802246093750,31.5974998474121100,58,105,85,79,63,15184,2147729901,2147543396,2148208356,2147872466,2147577801,2147225325,2148281572,2147218550,917,2,15,36857
1383345123,5808,173.3000030517578000,18.7338008880615230,34.8927993774414060,215.1284027099609400,209.8816070556640600,18.7157402038574220,31.5462303161621100,58,110,85,82,63,15179,2147753654,2147631762,2148391222,2147875401,2147586496,2147289270,2148371739,2147225170,328,2,14,6921
1383345210,5808,169.0899963378906200,18.8069000244140620,34.9070014953613300,214.9430999755859400,207.6401977539062500,18.7842006683349600,31.5251293182373050,61,109,87,82,63,15179,2147876708,2148109668,2149391405,2147877741,2147632118,2147550765,2148848475,2147260745,720,2,15,59703
1383345313,5809,166.0399932861328000,18.8754997253417970,34.9104995727539060,214.9837036132812500,205.3753051757812500,18.8533802032470700,31.4921092987060550,60,109,89,80,63,15185,2147897298,2148141476,2149441444,2147880603,2147641984,2147574345,2148860754,2147260077,1065,2,15,38470
1383345515,5806,161.5200042724609400,19.0552005767822270,34.9226989746093750,211.8316040039062500,199.0686035156250000,19.0460395812988280,31.5758991241455080,62,106,87,81,62,15183,2147765632,2147622125,2148322404,2147875693,2147586907,2147275026,2148331136,2147224694,1615,2,15,43974
1383345618,5806,157.8399963378906200,19.2775993347167970,34.9387016296386700,211.0415954589843800,192.4514007568359400,19.2482109069824220,31.5286197662353500,63,111,86,81,63,15179,2148000384,2148384612,2149865536,2147882249,2147680054,2147716507,2149068342,2147276013,1443,2,15,5773
1383345721,5810,153.9299926757812500,19.4016990661621100,34.9508018493652340,208.8612060546875000,187.3609008789062500,19.4037609100341800,31.5787506103515620,65,110,87,79,63,15176,2148077275,2148556406,2150161984,2147882633,2147710628,2147810267,2149202916,2147287561,621,1,15,52320
1383345820,5809,148.9199981689453000,19.5300998687744140,34.9659004211425800,207.2713012695312500,181.1598968505859400,19.5932903289794920,31.5823707580566400,62,110,86,80,62,15180,2148138971,2148638646,2150245723,2147886555,2147729901,2147840758,2149212553,2147287168,2925,2,16,6486
1383345876,5808,145.5000000000000000,19.8589000701904300,35.0052986145019500,207.4837951660156200,173.1419982910156200,19.8384208679199220,31.4616107940673830,70,110,88,81,62,15171,2148305856,2149048585,2151007442,2147892470,2147794870,2148076242,2149593728,2147315035,3547,2,15,9418
1383345955,5808,141.2700042724609400,20.1063995361328120,35.0348014831543000,207.2662048339843800,164.3739013671875000,20.1065998077392580,31.3549709320068360,72,111,83,80,63,15170,2148017051,2148198025,2149332406,2147880841,2147682779,2147620196,2148830317,2147265444,2308,2,15,13141
1383346034,5808,137.9900054931640600,20.4750995635986330,35.0447998046875000,207.1378936767578000,153.3979034423828000,20.4424896240234380,31.2142791748046880,83,116,88,81,63,15161,2147893092,2147846811,2148646006,2147874477,2147635209,2147400621,2148471204,2147238253,1219,2,15,48571
1383346223,5809,134.6699981689453000,20.6898994445800780,35.0727005004882800,207.6295013427734400,145.5997009277343800,20.6812705993652340,31.0825290679931640,91,126,87,81,62,15152,2147988480,2148001115,2148869595,2147877860,2147665545,2147481417,2148557805,2147245092,873,2,15,61787
1383346386,5810,131.3500061035156200,20.7467994689941400,35.0768013000488300,208.1663055419922000,143.6242065429687500,20.7417793273925780,31.0266208648681640,91,120,85,81,62,15144,2148441243,2148865947,2150246747,2147890752,2147831469,2147917952,2149157376,2147294692,3352,2,15,40500
1383346498,5805,126.6800003051757800,21.1159000396728500,35.1038017272949200,207.3712005615234400,132.5377044677734400,21.0815296173095700,30.9223403930664060,98,124,87,82,61,15132,2149856009,2151528896,2154568694,2147932745,2148344210,2149218605,2151013869,2147438710,3420,2,15,25258
1383346577,5812,122.8399963378906200,21.3969993591308600,35.1338996887207000,209.4400024414062500,122.8804016113281200,21.3777294158935550,30.6815700531005860,109,122,88,83,62,15127,2149132754,2149914450,2151714578,2147908416,2148080996,2148399734,2149757348,2147345526,2120,1,15,9317
1383346680,5808,118.7300033569336000,21.5781993865966800,35.1450996398925800,211.3661041259765600,117.0820999145507800,21.5556907653808600,30.5017204284667970,114,122,86,83,62,15116,2151280566,2153629037,2157479570,2147978011,2148827062,2150086838,2152047661,2147537033,903,2,15,18163
1383346809,5809,115.3499984741211000,21.8342990875244140,35.1805992126464840,213.8719024658203000,108.9900970458984400,21.8042106628417970,30.2629299163818360,117,120,86,84,63,15114,2151849846,2154192054,2158038912,2147991186,2149017307,2150300196,2152267044,2147561929,280,2,15,56847
1383347148,5809,111.1699981689453100,22.3955001831054700,35.2201004028320300,221.6392974853515600,90.2604370117187500,22.3802509307861330,29.6221408843994140,134,120,87,82,62,15096,2153975497,2156649078,2160545865,2148036800,2149730523,2151184420,2153098944,2147650532,2277,1,16,47104
1383347275,5810,106.9300003051757800,22.6940994262695300,35.2430000305175800,225.7382965087890600,80.8705902099609400,22.6694908142089840,29.2990207672119140,145,120,90,83,62,15082,2155273545,2157871030,2161471268,2148070208,2150185636,2151629412,2153410971,2147691291,2361,2,15,14076
1383347398,5812,102.4199981689453100,22.8745994567871100,35.2647018432617200,229.7693023681640600,74.7898635864257800,22.8569793701171880,29.0269794464111330,137,120,86,82,61,15065,2156345664,2158633801,2161511506,2148092662,2150587721,2151856402,2153356891,2147705673,1433,2,15,9641
1383347477,5809,98.5500030517578100,23.1100997924804700,35.2891006469726560,233.8769989013672000,67.3501510620117200,23.0865802764892580,28.7392997741699220,135,121,88,83,60,15074,2163420745,2167634020,2172205147,2148326829,2153232630,2155661622,2157557056,2148111625,1536,1,15,16893
1383347532,5807,95.8899993896484400,23.1945991516113280,35.3003997802734400,236.5639953613281200,63.9998397827148440,23.1900405883789060,28.5726890563964840,132,120,91,83,61,15067,2165773558,2169899392,2174040118,2148396699,2154160054,2156759698,2158495286,2148208429,1107,1,16,13328
1383347587,5809,93.4100036621093800,23.3761997222900400,35.3144989013671900,239.4709930419922000,58.5344696044921900,23.3589305877685550,28.3716907501220700,123,121,88,83,57,15071,2169565476,2173948937,2178056996,2148504484,2155767067,2158670134,2160261019,2148399168,297,1,15,56562
1383347642,5806,91.4100036621093800,23.5561008453369140,35.3218994140625000,242.3217010498047000,52.7006797790527340,23.5393505096435550,28.1711101531982420,106,120,89,83,59,15072,2171625179,2175892827,2179375652,2148569106,2156603254,2159436544,2160711250,2148449874,2833,1,16,20286
1383347700,5804,89.9199981689453100,23.6023998260498050,35.3255004882812500,244.5697021484375000,50.8600006103515600,23.5963096618652340,28.0487098693847660,107,123,90,84,59,15070,2174358198,2178800713,2181793526,2148656914,2157813467,2160689645,2161644169,2148558683,2226,1,15,3438
1383347767,5805,88.4899978637695300,23.7408008575439450,35.3270988464355500,245.8135986328125000,47.7457199096679700,23.6927108764648440,27.9555397033691400,103,122,91,84,60,15070,2176761170,2181185490,2183578377,2148702235,2159133952,2162125522,2162754761,2148677001,1690,1,16,18987
1383347822,5811,87.6200027465820300,23.9864006042480470,35.3297996520996100,246.1130981445312500,39.9837303161621100,23.9331893920898440,27.8466300964355470,98,125,87,84,59,15061,2178183332,2182497609,2184599387,2148749833,2159801188,2162830262,2163348361,2148738770,2265,0,16,35410
1383348150,5806,85.5699996948242200,24.5303993225097660,35.3482017517089840,249.0574951171875000,21.7266693115234380,24.4999904632568360,27.4951190948486330,86,129,91,84,59,15062,2187468388,2191856768,2192504246,2149014153,2164575094,2168037714,2167435382,2149149421,2430,1,15,57394
1383348346,5807,83.0800018310546900,24.8258991241455080,35.3535995483398440,249.0746002197265600,11.1780996322631840,24.8282794952392580,27.3654193878173830,78,129,91,85,58,15050,2192448621,2195687314,2194786578,2149177014,2168086473,2171423990,2169392091,2149339611,411,1,16,21086
1383348413,5806,81.5599975585937500,25.1942005157470700,35.3688011169433600,248.8170013427734400,0.3393977880477905,25.1662502288818360,27.2442607879638670,76,129,92,86,57,15062,2204422491,2208134134,2206272941,2149557513,2174176749,2178250368,2175012169,2149898678,296,1,15,10261
1383348552,5810,79.3899993896484400,25.2670001983642580,35.3745002746582000,249.2467041015625000,-2.2858951091766357,25.2482109069824220,27.1940402984619140,71,131,92,86,56,15059,2206270893,2208970331,2205678171,2149653933,2176430153,2179997129,2175733732,2149985664,2610,1,16,10747
1383348651,5809,76.0100021362304700,25.5797004699707030,35.3862991333007800,248.3424987792968800,-9.6710176467895500,25.4790000915527340,27.1427898406982420,71,129,91,84,57,15053,2211055890,2212590930,2208155245,2149977060,2180550354,2183673664,2177887661,2150221467,2785,2,16,35880
1383348706,5807,73.5899963378906200,25.6317996978759770,35.3913002014160160,247.8594055175781200,-13.8272895812988280,25.6090393066406250,27.1127605438232420,70,127,92,85,56,15050,2217699894,2218617892,2213483922,2150344932,2185162029,2188307675,2181135588,2150565211,3236,2,16,55198
1383348761,5808,71.8799972534179700,26.0960006713867200,35.4072990417480500,245.6378936767578000,-26.5313491821289060,26.0071792602539060,27.0536708831787100,69,129,93,86,59,15046,2222990482,2223381202,2217317339,2150580160,2189393746,2192324580,2183753828,2150835136,224,0,16,54149
1383349028,5809,70.6399993896484400,26.8624000549316400,35.4495010375976560,239.3365936279297000,-52.4343490600585940,26.8223209381103500,27.0129909515380860,67,127,89,85,57,15046,2227076553,2226465444,2219023241,2150796224,2194599588,2196751497,2186138404,2151067611,3413,2,17,53263
1383349179,5805,68.3499984741211000,26.8626003265380860,35.4538002014160160,238.0838012695312500,-53.3348197937011700,26.8507404327392580,27.0573005676269530,66,126,90,85,54,15053,2230294875,2229681316,2222284653,2151199990,2195641133,2197622866,2186744512,2151206317,3198,2,16,17759
1383349266,5806,66.0100021362304700,26.9673004150390620,35.4562988281250000,237.0258026123047000,-58.3077697753906250,27.0078105926513670,27.0438899993896500,66,123,90,85,56,15053,2242793965,2242162697,2234086756,2152218523,2206520749,2208821577,2195155309,2152118738,3523,2,17,48726
1383349321,5803,63.9599990844726560,27.2140007019042970,35.4613990783691400,235.4105987548828000,-63.9847908020019500,27.1873397827148440,27.0467395782470700,61,121,90,85,57,15064,2230348745,2228805714,2221372041,2151799515,2200751945,2201550866,2188560722,2151483108,209,1,16,22352
1383349388,5810,62.4000015258789060,27.3108005523681640,35.4641990661621100,233.9969024658203000,-67.5143890380859400,27.2990798950195300,27.0671691894531250,61,122,90,84,55,15063,2222648338,2219315117,2211003849,2151213696,2200529462,2200039296,2186345060,2151159177,371,0,16,10995
1383349572,5809,60.4199981689453100,27.4853000640869140,35.4515991210937500,230.9622039794922000,-73.3663711547851600,27.4845600128173830,27.1332607269287100,59,119,90,85,57,15054,2256027428,2253769865,2243213046,2153693961,2227593920,2226136274,2204416566,2153108059,2811,1,16,17321
1383349687,5809,58.4900016784668000,27.6399993896484380,35.4147987365722660,228.1678924560547000,-78.0023803710937500,27.6316795349121100,27.2047004699707030,58,119,89,85,55,15059,2260421284,2257593792,2245688475,2154205174,2242578404,2238361691,2210586550,2153772982,2477,1,17,22875
1383349826,5805,56.4099998474121100,27.7306003570556640,35.4052009582519500,225.7068939208984400,-81.1017074584961000,27.7301406860351560,27.2811603546142580,57,117,91,83,53,15061,2277737435,2275325101,2262969179,2156324278,2259683227,2252776612,2219160521,2154629686,2613,0,16,4909
1383349913,5808,53.8400001525878900,27.7803001403808600,35.3998985290527340,224.3000030517578000,-82.5826263427734400,27.7772102355957030,27.3288593292236330,55,116,87,83,56,15075,2275590253,2273086912,2260977773,2157350253,2272577984,2263164160,2224363840,2155429046,2306,1,16,458
1383349968,5808,51.2999992370605500,27.7863006591796880,35.3978996276855500,223.8441009521484400,-82.8050918579101600,27.7842807769775400,27.3477001190185550,55,117,89,83,52,15072,2293639094,2292035785,2279356681,2159915638,2293088786,2280975497,2234935670,2156744109,1881,1,16,22401
1383350023,5807,48.5200004577636700,27.7987003326416000,35.3995018005371100,223.5572967529297000,-83.7145233154296900,27.8131999969482420,27.3501396179199220,54,118,90,82,53,15072,2301421988,2299180534,2286532653,2162838610,2308388489,2293850432,2242479296,2157880301,1596,1,16,52324
1383350078,5806,45.7200012207031250,27.8339996337890620,35.4039993286132800,223.3103027343750000,-84.4507369995117200,27.8366107940673830,27.3526897430419920,54,118,89,83,58,15069,2308248155,2304224621,2291212187,2164697773,2324857764,2307861705,2250831378,2159105033,1228,1,16,52247
1383350133,5807,42.8899993896484400,27.7952995300292970,35.3344001770019500,223.2924041748047000,-83.6148834228515600,27.8100299835205080,27.3638095855712900,52,118,87,83,59,15056,2300409837,2297214089,2285432832,2165414912,2327483922,2308701092,2250775945,2159386432,1582,1,16,42586
1383350191,5811,40.3499984741210940,27.7551994323730470,35.2855987548828100,223.1419067382812500,-82.0125122070312500,27.7590808868408200,27.3905792236328120,54,118,88,85,57,15065,2324717046,2322369408,2309872548,2171606738,2352301668,2329087552,2262775817,2161398884,2048,0,17,62296
1383350246,5805,38.0699996948242200,27.7238998413085940,35.2443008422851560,222.9004058837890600,-81.0794830322265600,27.7294292449951170,27.4135093688964840,54,116,90,84,60,15070,2338430006,2336454189,2324562733,2177323218,2375890285,2349679277,2275604507,2163382363,1976,0,17,17770
1383350301,5813,35.8899993896484400,27.7183990478515620,35.2394981384277340,223.0153961181640600,-80.9013671875000000,27.7237701416015620,27.4102001190185550,53,114,87,83,55,15072,2353851712,2354911067,2346281691,2183968566,2391216795,2363076635,2284724717,2165767808,2131,1,17,10434
1383350356,5809,33.6399993896484400,27.7178993225097660,35.2350006103515600,222.7189941406250000,-80.8621368408203100,27.7225208282470700,27.4246692657470700,54,113,91,83,56,15066,2362385755,2361636297,2351383826,2189320420,2424499904,2392528557,2303006226,2168741613,2026,1,17,53550
1383350411,5820,31.5100002288818360,27.7210006713867200,35.2333984375000000,222.7476959228515600,-80.9723815917968800,27.7260303497314450,27.4221305847167970,52,115,91,83,53,15074,2371538980,2373134537,2365657408,2198226368,2420129728,2386492937,2298111643,2168879451,1748,0,17,37250